Miscellaneous Local Product
Issued by NWS North Platte, NE

Home | Current Version | Previous Version | Graphics & Text | Print | Product List | Glossary On
Versions: 1 2 3 4 5 6 7 8 9 10 11 12 13 14 15 16 17 18 19 20 21 22 23 24 25 26 27 28 29 30 31 32 33 34 35 36 37 38 39 40 41 42 43 44 45 46 47 48 49 50
350
AXUS43 KLBF 222110
MISLBF


WESTERN AND NORTH CENTRAL NEBRASKA HOURLY WEATHER ROUNDUP
NATIONAL WEATHER SERVICE NORTH PLATTE NE
400 PM CDT SAT APR 22 2017

NOTE: "FAIR" INDICATES FEW OR NO CLOUDS BELOW 12,000 FEET WITH NO
SIGNIFICANT WEATHER AND/OR OBSTRUCTIONS TO VISIBILITY.

NOTE: STATIONS NOT REPORTING VARIABLES SUCH AS SKY/WEATHER OR
PRESSURE ARE PROVIDED BY RAWS AND APRS NETWORKS AND ARE NOT UNDER
NATIONAL WEATHER SERVICE QUALITY CONTROL.

...OBSERVATIONS IN AND NEAR THE EASTERN PANHANDLE OF NEBRASKA...

CITY           SKY/WX    TMP DP  RH WIND       PRES   REMARKS
PINE RIDGE     SUNNY     64  33  31 SW9G20    30.19F
CHADRON        MOSUNNY   64  33  31 SW12G20   30.18F
ALLIANCE       SUNNY     60  30  32 S9        30.21F
SIDNEY         MOSUNNY   56  34  43 MISG      30.26F
CRESCENT LAKE    N/A     62  25  24 W6G15       N/A
$$

...OBSERVATIONS IN NORTHERN NEBRASKA AND FAR SOUTHERN SOUTH DAKOTA...

CITY           SKY/WX    TMP DP  RH WIND       PRES   REMARKS
WINNER         FAIR      66  35  31 S10       30.20F
VALENTINE      SUNNY     66  25  21 VRB3      30.21
THEDFORD       SUNNY     64  29  26 E5        30.23F
AINSWORTH      SUNNY     62  35  37 SE6       30.22F
O`NEILL        SUNNY     63  31  30 S5        30.23F
ORD            SUNNY     64  32  30 NE7       30.22F
BROKEN BOW     SUNNY     63  29  27 N6        30.23F
VALENTINE NWR    N/A     63  29  28 W7          N/A
HALSEY           N/A     64  29  26 E5          N/A
BUTTE            N/A     63  36  36 CALM        N/A
CHAMBERS         N/A     65  38  36 W3          N/A
EWING            N/A     63  36  36 E5          N/A
$$

...OBSERVATIONS IN SOUTHWEST NEBRASKA AND FAR NORTHEAST COLORADO...

CITY           SKY/WX    TMP DP  RH WIND       PRES   REMARKS
HOLYOKE        FAIR      61  32  33 CALM      30.27F
IMPERIAL       SUNNY     58  31  35 CALM      30.25F
OGALLALA       SUNNY     63  29  28 W3        30.24F
NORTH PLATTE   SUNNY     63  30  28 VRB3      30.24F
MCCOOK         MOSUNNY   62  30  29 VRB3      30.24F
LEXINGTON      SUNNY     61  29  30 SE3       30.24F
STAPLETON        N/A     63  31  29 CALM        N/A
GOTHENBURG       N/A     62  29  29 E6          N/A
CALLAWAY         N/A     62  33  34 CALM        N/A
$$

...OBSERVATIONS IN CENTRAL LINCOLN COUNTY AREA...

CITY           SKY/WX    TMP DP  RH WIND       PRES   REMARKS
N.P. AIRPORT   SUNNY     63  30  28 VRB3      30.24F
N.P. DOWNTOWN    N/A     60  31  33 CALM        N/A
N.P. SOUTHEAST   N/A     62  32  32 CALM        N/A
N.P. HILLCREST   N/A     62  33  34 SW3         N/A
$$

...SOME OBSERVATIONS FROM AROUND THE REGION...

CITY           SKY/WX    TMP DP  RH WIND       PRES   REMARKS
DENVER         PTSUNNY   54  28  36 VRB7      30.26F
LIMON          PTSUNNY   51  28  41 E5        30.27F
ASPEN          MOSUNNY   50  15  24 VRB6      30.20F
LARAMIE        SUNNY     47  27  45 SE13      30.23F
CASPER         PTSUNNY   52  31  44 S13G20    30.19F
CHEYENNE       MOSUNNY   49  31  49 S7        30.25F
SCOTTSBLUFF    MOSUNNY   59  29  31 SW3       30.21F
GRAND ISLAND   SUNNY     63  28  26 NE9       30.23F
OMAHA          PTSUNNY   68  31  25 N9G22     30.19F
SIOUX FALLS    MOSUNNY   67  39  35 VRB6      30.19F
PIERRE         SUNNY     66  34  30 SW12G22   30.16F
RAPID CITY     SUNNY     65  36  34 S20G26    30.16F
BISMARCK       CLOUDY    71  37  28 W12       30.09F
KANSAS CITY    MOSUNNY   64  29  26 NE25      30.11F
HILL CITY      PTSUNNY   61  30  31 NE8       30.25F
WICHITA        CLOUDY    60  38  43 N17       30.16F
DODGE CITY     PTSUNNY   58  35  42 N13       30.24F
OKLAHOMA CITY  PTSUNNY   56  40  55 N20G29    30.12F
DALLAS         PTSUNNY   62  45  53 N18G24    30.07F
AMARILLO       MOSUNNY   59  33  37 N21G29    30.23F
$$




USA.gov is the U.S. government's official web portal to all federal, state and local government web resources and services.